| time (UTC) | temp F | wind direction | speed knots | gust knots | rain 1hr in | rain 24hr in | rain mn in | humidity % | barometer mb |
| 20260504034522 | 66 | 252 | 3.5 | 6.1 | 0.00 | 0.00 | 0.00 | 64 | 1013.7 |
| 20260504034434 | 67 | 236 | 4.3 | 6.1 | 0.00 | 0.00 | 0.00 | 64 | 1014.3 |
| 20260504033946 | 67 | 239 | 4.3 | 6.1 | 0.00 | 0.00 | 0.00 | 64 | 1014.4 |
| 20260504033427 | 67 | 239 | 4.3 | 6.1 | 0.00 | 0.00 | 0.00 | 64 | 1014.4 |
| 20260504033011 | 67 | 252 | 3.5 | 7.0 | 0.00 | 0.00 | 0.00 | 63 | 1013.8 |
| 20260504032936 | 67 | 238 | 4.3 | 7.0 | 0.00 | 0.00 | 0.00 | 63 | 1014.4 |
| 20260504032443 | 67 | 244 | 4.3 | 7.8 | 0.00 | 0.00 | 0.00 | 63 | 1014.4 |
| 20260504031924 | 67 | 251 | 4.3 | 6.1 | 0.00 | 0.00 | 0.00 | 62 | 1014.4 |
| 20260504031512 | 67 | 223 | 4.3 | 6.1 | 0.00 | 0.00 | 0.00 | 62 | 1013.7 |
| 20260504031431 | 68 | 254 | 5.2 | 6.1 | 0.00 | 0.00 | 0.00 | 62 | 1014.3 |
| 20260504030943 | 68 | 247 | 5.2 | 6.1 | 0.00 | 0.00 | 0.00 | 62 | 1014.3 |
| 20260504030456 | 68 | 251 | 4.3 | 6.1 | 0.00 | 0.00 | 0.00 | 62 | 1014.3 |
| 20260504025935 | 68 | 238 | 5.2 | 6.1 | 0.00 | 0.00 | 0.00 | 62 | 1014.3 |
| 20260504025447 | 68 | 237 | 4.3 | 6.1 | 0.00 | 0.00 | 0.00 | 61 | 1014.4 |
| 20260504024958 | 68 | 235 | 4.3 | 6.1 | 0.00 | 0.00 | 0.00 | 61 | 1014.3 |
| 20260504024529 | 68 | 238 | 4.3 | 6.1 | 0.00 | 0.00 | 0.00 | 61 | 1013.7 |
| 20260504024427 | 68 | 247 | 4.3 | 6.1 | 0.00 | 0.00 | 0.00 | 61 | 1014.3 |
| 20260504023929 | 68 | 234 | 4.3 | 5.2 | 0.00 | 0.00 | 0.00 | 60 | 1014.2 |
| 20260504023441 | 68 | 221 | 4.3 | 5.2 | 0.00 | 0.00 | 0.00 | 60 | 1014.2 |
| 20260504023037 | 68 | 234 | 3.5 | 5.2 | 0.00 | 0.00 | 0.00 | 60 | 1013.5 |
| 20260504022931 | 69 | 240 | 4.3 | 5.2 | 0.00 | 0.00 | 0.00 | 60 | 1014.1 |
| 20260504022502 | 69 | 237 | 4.3 | 5.2 | 0.00 | 0.00 | 0.00 | 60 | 1014.0 |
| 20260504021924 | 69 | 248 | 4.3 | 5.2 | 0.00 | 0.00 | 0.00 | 59 | 1014.1 |
| 20260504021523 | 69 | 238 | 3.5 | 7.0 | 0.00 | 0.00 | 0.00 | 59 | 1013.4 |
| 20260504021434 | 69 | 236 | 3.5 | 7.8 | 0.00 | 0.00 | 0.00 | 59 | 1014.1 |
| 20260504020932 | 69 | 247 | 4.3 | 7.8 | 0.00 | 0.00 | 0.00 | 59 | 1014.0 |
| 20260504020423 | 69 | 238 | 4.3 | 5.2 | 0.00 | 0.00 | 0.00 | 59 | 1014.0 |
| 20260504020030 | 69 | 237 | 3.5 | 5.2 | 0.00 | 0.00 | 0.00 | 58 | 1013.3 |
| 20260504015933 | 69 | 248 | 4.3 | 5.2 | 0.00 | 0.00 | 0.00 | 58 | 1013.9 |
| 20260504015435 | 70 | 237 | 3.5 | 5.2 | 0.00 | 0.00 | 0.00 | 58 | 1013.9 |
| 20260504014927 | 70 | 244 | 3.5 | 7.0 | 0.00 | 0.00 | 0.00 | 58 | 1013.9 |
| 20260504014538 | 70 | 235 | 3.5 | 7.0 | 0.00 | 0.00 | 0.00 | 57 | 1013.3 |
| 20260504014436 | 70 | 241 | 4.3 | 7.0 | 0.00 | 0.00 | 0.00 | 57 | 1013.8 |
| 20260504013948 | 70 | 239 | 4.3 | 7.0 | 0.00 | 0.00 | 0.00 | 57 | 1013.7 |
| 20260504013430 | 70 | 236 | 4.3 | 7.0 | 0.00 | 0.00 | 0.00 | 56 | 1013.8 |
| 20260504013034 | 70 | 248 | 4.3 | 6.1 | 0.00 | 0.00 | 0.00 | 56 | 1013.2 |
| 20260504012959 | 70 | 237 | 4.3 | 6.1 | 0.00 | 0.00 | 0.00 | 56 | 1013.8 |
| 20260504012430 | 71 | 234 | 4.3 | 6.1 | 0.00 | 0.00 | 0.00 | 56 | 1013.8 |
| 20260504011933 | 71 | 238 | 4.3 | 5.2 | 0.00 | 0.00 | 0.00 | 56 | 1013.8 |
| 20260504011510 | 70 | 229 | 3.5 | 6.1 | 0.00 | 0.00 | 0.00 | 56 | 1013.2 |
| 20260504011439 | 71 | 217 | 3.5 | 6.1 | 0.00 | 0.00 | 0.00 | 56 | 1013.8 |
| 20260504010931 | 71 | 235 | 3.5 | 6.1 | 0.00 | 0.00 | 0.00 | 56 | 1013.8 |
| 20260504010434 | 71 | 243 | 3.5 | 5.2 | 0.00 | 0.00 | 0.00 | 56 | 1013.7 |
| 20260504010018 | 71 | 230 | 3.5 | 5.2 | 0.00 | 0.00 | 0.00 | 56 | 1013.1 |
| 20260504005924 | 71 | 240 | 3.5 | 5.2 | 0.00 | 0.00 | 0.00 | 56 | 1013.7 |
| 20260504005427 | 72 | 240 | 3.5 | 5.2 | 0.00 | 0.00 | 0.00 | 55 | 1013.7 |
| 20260504004938 | 72 | 224 | 3.5 | 4.3 | 0.00 | 0.00 | 0.00 | 54 | 1013.6 |
| 20260504004529 | 72 | 236 | 3.5 | 4.3 | 0.00 | 0.00 | 0.00 | 54 | 1013.1 |
| 20260504004428 | 72 | 230 | 3.5 | 4.3 | 0.00 | 0.00 | 0.00 | 54 | 1013.7 |
| 20260504003925 | 73 | 224 | 3.5 | 5.2 | 0.00 | 0.00 | 0.00 | 54 | 1013.7 |
| 20260504003436 | 73 | 256 | 3.5 | 4.3 | 0.00 | 0.00 | 0.00 | 53 | 1013.8 |
| 20260504003011 | 72 | 245 | 2.6 | 4.3 | 0.00 | 0.00 | 0.00 | 53 | 1013.2 |
| 20260504002925 | 73 | 243 | 3.5 | 4.3 | 0.00 | 0.00 | 0.00 | 53 | 1013.8 |
| 20260504002458 | 73 | 224 | 3.5 | 5.2 | 0.00 | 0.00 | 0.00 | 52 | 1013.8 |
| 20260504001949 | 73 | 245 | 3.5 | 5.2 | 0.00 | 0.00 | 0.00 | 52 | 1013.8 |
| 20260504001604 | 73 | 243 | 2.6 | 4.3 | 0.00 | 0.00 | 0.00 | 51 | 1013.2 |
| 20260504001459 | 74 | 245 | 2.6 | 4.3 | 0.00 | 0.00 | 0.00 | 52 | 1013.9 |
| 20260504000940 | 74 | 239 | 3.5 | 4.3 | 0.00 | 0.00 | 0.00 | 51 | 1013.8 |
| 20260504000432 | 74 | 213 | 3.5 | 6.1 | 0.00 | 0.00 | 0.00 | 50 | 1013.9 |
| 20260504000121 | 74 | 246 | 3.5 | 6.1 | 0.00 | 0.00 | 0.00 | 50 | 1013.3 |
| 20260503235932 | 75 | 234 | 3.5 | 6.1 | 0.00 | 0.00 | 0.00 | 50 | 1014.0 |
| 20260503235424 | 75 | 233 | 4.3 | 7.0 | 0.00 | 0.00 | 0.00 | 49 | 1014.0 |
| 20260503234934 | 75 | 252 | 4.3 | 7.0 | 0.00 | 0.00 | 0.00 | 49 | 1014.0 |
| 20260503234547 | 75 | 196 | 3.5 | 7.8 | 0.00 | 0.00 | 0.00 | 49 | 1013.3 |
| 20260503234423 | 75 | 252 | 3.5 | 7.8 | 0.00 | 0.00 | 0.00 | 48 | 1014.0 |
| 20260503233925 | 75 | 218 | 3.5 | 6.1 | 0.00 | 0.00 | 0.00 | 48 | 1014.1 |
| 20260503233433 | 75 | 170 | 3.5 | 6.1 | 0.00 | 0.00 | 0.00 | 48 | 1014.1 |
| 20260503233024 | 75 | 217 | 2.6 | 5.2 | 0.00 | 0.00 | 0.00 | 48 | 1013.5 |
| 20260503232923 | 75 | 249 | 3.5 | 5.2 | 0.00 | 0.00 | 0.00 | 48 | 1014.1 |
| 20260503232426 | 75 | 246 | 2.6 | 5.2 | 0.00 | 0.00 | 0.00 | 47 | 1014.1 |
| 20260503231939 | 75 | 236 | 2.6 | 5.2 | 0.00 | 0.00 | 0.00 | 48 | 1014.1 |
| 20260503231532 | 75 | 257 | 2.6 | 5.2 | 0.00 | 0.00 | 0.00 | 47 | 1013.5 |
| 20260503231427 | 76 | 212 | 2.6 | 5.2 | 0.00 | 0.00 | 0.00 | 48 | 1014.1 |
| 20260503230930 | 76 | 254 | 2.6 | 7.0 | 0.00 | 0.00 | 0.00 | 47 | 1014.1 |
| 20260503230440 | 76 | 244 | 4.3 | 7.0 | 0.00 | 0.00 | 0.00 | 46 | 1014.0 |
| 20260503230018 | 75 | 250 | 3.5 | 6.1 | 0.00 | 0.00 | 0.00 | 46 | 1013.4 |
| 20260503225950 | 76 | 245 | 4.3 | 6.1 | 0.00 | 0.00 | 0.00 | 45 | 1014.0 |
| 20260503225420 | 76 | 275 | 4.3 | 7.8 | 0.00 | 0.00 | 0.00 | 45 | 1014.0 |
| 20260503224930 | 76 | 218 | 3.5 | 7.8 | 0.00 | 0.00 | 0.00 | 46 | 1014.1 |
| 20260503224547 | 76 | 264 | 2.6 | 7.8 | 0.00 | 0.00 | 0.00 | 46 | 1013.5 |
| 20260503224432 | 76 | 238 | 2.6 | 4.3 | 0.00 | 0.00 | 0.00 | 46 | 1014.1 |
| 20260503223921 | 77 | 245 | 1.7 | 4.3 | 0.00 | 0.00 | 0.00 | 45 | 1014.1 |
| 20260503223452 | 77 | 244 | 3.5 | 5.2 | 0.00 | 0.00 | 0.00 | 45 | 1014.3 |
| 20260503223015 | 76 | 247 | 2.6 | 7.8 | 0.00 | 0.00 | 0.00 | 45 | 1013.7 |
| 20260503222936 | 77 | 230 | 2.6 | 7.8 | 0.00 | 0.00 | 0.00 | 44 | 1014.3 |
| 20260503222425 | 77 | 229 | 4.3 | 7.8 | 0.00 | 0.00 | 0.00 | 44 | 1014.4 |
| 20260503221957 | 77 | 233 | 4.3 | 6.1 | 0.00 | 0.00 | 0.00 | 43 | 1014.4 |
| 20260503221520 | 77 | 240 | 2.6 | 6.1 | 0.00 | 0.00 | 0.00 | 43 | 1013.9 |
| 20260503221426 | 77 | 242 | 2.6 | 6.1 | 0.00 | 0.00 | 0.00 | 42 | 1014.5 |
| 20260503220928 | 78 | 227 | 3.5 | 6.1 | 0.00 | 0.00 | 0.00 | 44 | 1014.5 |
| 20260503220440 | 78 | 231 | 3.5 | 6.1 | 0.00 | 0.00 | 0.00 | 42 | 1014.5 |
| 20260503220030 | 78 | 228 | 2.6 | 5.2 | 0.00 | 0.00 | 0.00 | 43 | 1014.0 |
| 20260503215930 | 78 | 179 | 3.5 | 5.2 | 0.00 | 0.00 | 0.00 | 42 | 1014.6 |
| 20260503215433 | 78 | 238 | 1.7 | 5.2 | 0.00 | 0.00 | 0.00 | 44 | 1014.7 |
| 20260503214925 | 78 | 307 | 2.6 | 5.2 | 0.00 | 0.00 | 0.00 | 43 | 1014.7 |
| 20260503214542 | 78 | 253 | 2.6 | 9.6 | 0.00 | 0.00 | 0.00 | 42 | 1014.2 |
| 20260503214435 | 78 | 252 | 3.5 | 9.6 | 0.00 | 0.00 | 0.00 | 43 | 1014.7 |
| 20260503213938 | 78 | 258 | 4.3 | 9.6 | 0.00 | 0.00 | 0.00 | 43 | 1014.8 |
| 20260503213429 | 78 | 243 | 2.6 | 7.8 | 0.00 | 0.00 | 0.00 | 44 | 1014.9 |
| 20260503213046 | 77 | 252 | 2.6 | 7.8 | 0.00 | 0.00 | 0.00 | 44 | 1014.5 |
| 20260503212959 | 78 | 243 | 3.5 | 7.8 | 0.00 | 0.00 | 0.00 | 43 | 1015.0 |
| 20260503212420 | 78 | 231 | 4.3 | 6.1 | 0.00 | 0.00 | 0.00 | 44 | 1015.0 |
| 20260503211932 | 78 | 240 | 3.5 | 7.0 | 0.00 | 0.00 | 0.00 | 45 | 1015.1 |
| 20260503211533 | 77 | 206 | 4.3 | 7.0 | 0.00 | 0.00 | 0.00 | 45 | 1014.6 |
| 20260503211458 | 78 | 252 | 4.3 | 7.0 | 0.00 | 0.00 | 0.00 | 43 | 1015.1 |
| 20260503210920 | 78 | 206 | 4.3 | 7.8 | 0.00 | 0.00 | 0.00 | 41 | 1015.3 |
| 20260503210433 | 78 | 205 | 3.5 | 9.6 | 0.00 | 0.00 | 0.00 | 44 | 1015.4 |
| 20260503210020 | 77 | 224 | 5.2 | 9.6 | 0.00 | 0.00 | 0.00 | 45 | 1015.0 |
| 20260503205922 | 78 | 231 | 5.2 | 9.6 | 0.00 | 0.00 | 0.00 | 44 | 1015.5 |
| 20260503205425 | 78 | 255 | 2.6 | 6.1 | 0.00 | 0.00 | 0.00 | 46 | 1015.6 |
| 20260503204936 | 77 | 233 | 3.5 | 6.1 | 0.00 | 0.00 | 0.00 | 43 | 1015.7 |
| 20260503204528 | 77 | 231 | 1.7 | 6.1 | 0.00 | 0.00 | 0.00 | 44 | 1015.2 |
| 20260503204426 | 78 | 252 | 2.6 | 6.1 | 0.00 | 0.00 | 0.00 | 44 | 1015.8 |
| 20260503203937 | 78 | 222 | 3.5 | 7.0 | 0.00 | 0.00 | 0.00 | 44 | 1015.8 |
| 20260503203508 | 77 | 239 | 3.5 | 7.8 | 0.00 | 0.00 | 0.00 | 43 | 1015.9 |
| 20260503203113 | 77 | 236 | 4.3 | 7.8 | 0.00 | 0.00 | 0.00 | 43 | 1015.5 |
| 20260503202928 | 77 | 277 | 5.2 | 7.8 | 0.00 | 0.00 | 0.00 | 42 | 1016.1 |
| 20260503202458 | 77 | 212 | 4.3 | 9.6 | 0.00 | 0.00 | 0.00 | 42 | 1016.2 |
| 20260503201930 | 77 | 254 | 4.3 | 9.6 | 0.00 | 0.00 | 0.00 | 44 | 1016.2 |
| 20260503201543 | 77 | 238 | 2.6 | 7.8 | 0.00 | 0.00 | 0.00 | 44 | 1015.8 |
| 20260503201438 | 77 | 199 | 3.5 | 7.8 | 0.00 | 0.00 | 0.00 | 44 | 1016.4 |
| 20260503201004 | 77 | 250 | 3.5 | 7.8 | 0.00 | 0.00 | 0.00 | 44 | 1016.5 |
| 20260503200447 | 77 | 269 | 4.3 | 7.0 | 0.00 | 0.00 | 0.00 | 44 | 1016.6 |
| 20260503200024 | 76 | 238 | 2.6 | 9.6 | 0.00 | 0.00 | 0.00 | 45 | 1016.2 |
| 20260503195933 | 77 | 251 | 4.3 | 9.6 | 0.00 | 0.00 | 0.00 | 44 | 1016.7 |
| 20260503195445 | 76 | 251 | 5.2 | 8.7 | 0.00 | 0.00 | 0.00 | 44 | 1016.9 |
| 20260503194927 | 77 | 252 | 4.3 | 7.0 | 0.00 | 0.00 | 0.00 | 42 | 1017.0 |
| 20260503194532 | 76 | 251 | 3.5 | 7.8 | 0.00 | 0.00 | 0.00 | 43 | 1016.6 |
| 20260503194436 | 77 | 211 | 3.5 | 7.8 | 0.00 | 0.00 | 0.00 | 43 | 1017.1 |
| 20260503193938 | 76 | 240 | 4.3 | 8.7 | 0.00 | 0.00 | 0.00 | 43 | 1017.1 |
| 20260503193429 | 76 | 249 | 3.5 | 8.7 | 0.00 | 0.00 | 0.00 | 47 | 1017.1 |
| 20260503193039 | 75 | 180 | 4.3 | 7.8 | 0.00 | 0.00 | 0.00 | 46 | 1016.7 |
| 20260503192938 | 76 | 260 | 4.3 | 7.8 | 0.00 | 0.00 | 0.00 | 45 | 1017.2 |
| 20260503192449 | 76 | 252 | 4.3 | 8.7 | 0.00 | 0.00 | 0.00 | 44 | 1017.3 |
| 20260503192001 | 76 | 184 | 5.2 | 8.7 | 0.00 | 0.00 | 0.00 | 43 | 1017.4 |
| 20260503191503 | 75 | 249 | 2.6 | 7.0 | 0.00 | 0.00 | 0.00 | 43 | 1017.0 |
| 20260503191441 | 76 | 240 | 3.5 | 7.0 | 0.00 | 0.00 | 0.00 | 45 | 1017.5 |
| 20260503190933 | 76 | 240 | 3.5 | 7.8 | 0.00 | 0.00 | 0.00 | 46 | 1017.5 |
| 20260503190435 | 75 | 173 | 2.6 | 8.7 | 0.00 | 0.00 | 0.00 | 45 | 1017.7 |
| 20260503190012 | 75 | 228 | 4.3 | 8.7 | 0.00 | 0.00 | 0.00 | 46 | 1017.3 |
| 20260503185925 | 75 | 249 | 4.3 | 8.7 | 0.00 | 0.00 | 0.00 | 44 | 1017.7 |
| 20260503185437 | 75 | 237 | 2.6 | 8.7 | 0.00 | 0.00 | 0.00 | 46 | 1017.8 |
| 20260503184939 | 74 | 253 | 3.5 | 8.7 | 0.00 | 0.00 | 0.00 | 44 | 1018.0 |
| 20260503184519 | 74 | 245 | 3.5 | 7.0 | 0.00 | 0.00 | 0.00 | 46 | 1017.6 |
| 20260503184445 | 74 | 198 | 4.3 | 7.0 | 0.00 | 0.00 | 0.00 | 46 | 1018.0 |
| 20260503183935 | 74 | 236 | 4.3 | 7.8 | 0.00 | 0.00 | 0.00 | 45 | 1018.2 |
| 20260503183447 | 74 | 210 | 4.3 | 7.8 | 0.00 | 0.00 | 0.00 | 44 | 1018.2 |
| 20260503183006 | 73 | 245 | 2.6 | 6.1 | 0.00 | 0.00 | 0.00 | 46 | 1017.8 |
| 20260503182928 | 74 | 239 | 3.5 | 6.1 | 0.00 | 0.00 | 0.00 | 43 | 1018.3 |
| 20260503182439 | 73 | 236 | 3.5 | 7.8 | 0.00 | 0.00 | 0.00 | 43 | 1018.3 |
| 20260503181951 | 73 | 264 | 5.2 | 13.9 | 0.00 | 0.00 | 0.00 | 41 | 1018.5 |
| 20260503181516 | 73 | 210 | 4.3 | 13.9 | 0.00 | 0.00 | 0.00 | 44 | 1018.0 |
| 20260503181431 | 73 | 172 | 4.3 | 9.6 | 0.00 | 0.00 | 0.00 | 46 | 1018.5 |
| 20260503180943 | 73 | 243 | 5.2 | 9.6 | 0.00 | 0.00 | 0.00 | 45 | 1018.6 |
| 20260503180426 | 73 | 237 | 4.3 | 9.6 | 0.00 | 0.00 | 0.00 | 44 | 1018.6 |
| 20260503180028 | 72 | 250 | 4.3 | 7.8 | 0.00 | 0.00 | 0.00 | 46 | 1018.3 |
| 20260503175936 | 73 | 288 | 5.2 | 7.8 | 0.00 | 0.00 | 0.00 | 46 | 1018.8 |
| 20260503175447 | 72 | 252 | 2.6 | 7.8 | 0.00 | 0.00 | 0.00 | 44 | 1018.9 |
| 20260503174950 | 73 | 246 | 5.2 | 7.8 | 0.00 | 0.00 | 0.00 | 44 | 1019.0 |
| 20260503174514 | 72 | 238 | 2.6 | 7.0 | 0.00 | 0.00 | 0.00 | 47 | 1018.6 |
| 20260503174439 | 72 | 172 | 3.5 | 7.0 | 0.00 | 0.00 | 0.00 | 47 | 1019.1 |
| 20260503173931 | 72 | 212 | 2.6 | 7.0 | 0.00 | 0.00 | 0.00 | 44 | 1019.1 |
| 20260503173503 | 71 | 186 | 3.5 | 7.0 | 0.00 | 0.00 | 0.00 | 45 | 1019.2 |
| 20260503173053 | 71 | 255 | 4.3 | 7.0 | 0.00 | 0.00 | 0.00 | 46 | 1018.9 |
| 20260503172923 | 72 | 242 | 3.5 | 7.0 | 0.00 | 0.00 | 0.00 | 47 | 1019.4 |
| 20260503172440 | 71 | 247 | 3.5 | 7.0 | 0.00 | 0.00 | 0.00 | 47 | 1019.4 |
| 20260503171941 | 71 | 238 | 4.3 | 7.0 | 0.00 | 0.00 | 0.00 | 46 | 1019.5 |
| 20260503171535 | 70 | 214 | 2.6 | 7.0 | 0.00 | 0.00 | 0.00 | 48 | 1019.2 |
| 20260503171431 | 71 | 242 | 4.3 | 7.0 | 0.00 | 0.00 | 0.00 | 47 | 1019.6 |
| 20260503170934 | 71 | 270 | 4.3 | 6.1 | 0.00 | 0.00 | 0.00 | 45 | 1019.6 |
| 20260503170426 | 71 | 236 | 2.6 | 5.2 | 0.00 | 0.00 | 0.00 | 47 | 1019.6 |
| 20260503150923 | 62 | 241 | 2.6 | 7.0 | 0.00 | 0.00 | 0.00 | 61 | 1020.8 |
| 20260503150426 | 62 | 211 | 2.6 | 5.2 | 0.00 | 0.00 | 0.00 | 62 | 1020.9 |
| 20260503130947 | 53 | 152 | 2.6 | 8.7 | 0.00 | 0.00 | 0.00 | 72 | 1020.6 |
| 20260503130430 | 53 | 183 | 2.6 | 5.2 | 0.00 | 0.00 | 0.00 | 72 | 1020.7 |
| 20260503110451 | 52 | 49 | 0.9 | 1.7 | 0.00 | 0.00 | 0.00 | 59 | 1019.7 |
| 20260503090440 | 54 | 47 | 0.9 | 1.7 | 0.00 | 0.00 | 0.00 | 55 | 1019.4 |
| 20260503081548 | 55 | 50 | 1.7 | 1.7 | 0.00 | 0.00 | 0.00 | 55 | 1019.2 |
| 20260503081437 | 55 | 50 | 1.7 | 1.7 | 0.00 | 0.00 | 0.00 | 54 | 1019.5 |
| 20260503081007 | 55 | 52 | 1.7 | 1.7 | 0.00 | 0.00 | 0.00 | 54 | 1019.5 |
| 20260503080434 | 55 | 52 | 0.9 | 1.7 | 0.00 | 0.00 | 0.00 | 54 | 1019.5 |
| 20260503072926 | 56 | 52 | 0.0 | 1.7 | 0.00 | 0.00 | 0.00 | 53 | 1019.5 |
| 20260503072436 | 56 | 53 | 0.9 | 1.7 | 0.00 | 0.00 | 0.00 | 52 | 1019.5 |
| 20260503071947 | 56 | 49 | 0.9 | 1.7 | 0.00 | 0.00 | 0.00 | 52 | 1019.5 |
| 20260503071534 | 56 | 49 | 0.0 | 1.7 | 0.00 | 0.00 | 0.00 | 53 | 1019.2 |
| 20260503071456 | 56 | 49 | 0.0 | 1.7 | 0.00 | 0.00 | 0.00 | 53 | 1019.5 |
| 20260503070947 | 56 | 49 | 0.9 | 1.7 | 0.00 | 0.00 | 0.00 | 53 | 1019.6 |
| 20260503070437 | 56 | 50 | 0.9 | 2.6 | 0.00 | 0.00 | 0.00 | 53 | 1019.6 |
| 20260503070106 | 56 | 53 | 0.9 | 2.6 | 0.00 | 0.00 | 0.00 | 52 | 1019.2 |
| 20260503060107 | 56 | 51 | 0.9 | 1.7 | 0.00 | 0.00 | 0.00 | 53 | 1019.2 |
| 20260503054951 | 57 | 56 | 1.7 | 2.6 | 0.00 | 0.00 | 0.00 | 53 | 1019.4 |
| 20260503054611 | 57 | 61 | 1.7 | 2.6 | 0.00 | 0.00 | 0.00 | 53 | 1019.1 |
| 20260503054432 | 57 | 53 | 1.7 | 2.6 | 0.00 | 0.00 | 0.00 | 53 | 1019.4 |
| 20260503053923 | 57 | 53 | 1.7 | 1.7 | 0.00 | 0.00 | 0.00 | 53 | 1019.4 |
| 20260503053426 | 57 | 53 | 1.7 | 2.6 | 0.00 | 0.00 | 0.00 | 53 | 1019.5 |
| 20260503053109 | 57 | 56 | 0.9 | 2.6 | 0.00 | 0.00 | 0.00 | 54 | 1019.1 |
| 20260503053005 | 57 | 49 | 1.7 | 2.6 | 0.00 | 0.00 | 0.00 | 53 | 1019.5 |
| 20260503052426 | 57 | 55 | 1.7 | 2.6 | 0.00 | 0.00 | 0.00 | 54 | 1019.5 |
| 20260503051938 | 57 | 60 | 1.7 | 2.6 | 0.00 | 0.00 | 0.00 | 54 | 1019.4 |
| 20260503051556 | 57 | 53 | 1.7 | 2.6 | 0.00 | 0.00 | 0.00 | 53 | 1019.1 |
| 20260503051439 | 58 | 54 | 1.7 | 2.6 | 0.00 | 0.00 | 0.00 | 54 | 1019.4 |
| 20260503050930 | 58 | 51 | 1.7 | 2.6 | 0.00 | 0.00 | 0.00 | 53 | 1019.4 |
| 20260503050437 | 58 | 56 | 2.6 | 2.6 | 0.00 | 0.00 | 0.00 | 52 | 1019.3 |
| 20260503045934 | 58 | 54 | 2.6 | 2.6 | 0.00 | 0.00 | 0.00 | 52 | 1019.4 |
| 20260503045445 | 58 | 52 | 1.7 | 2.6 | 0.00 | 0.00 | 0.00 | 52 | 1019.4 |
| 20260503044936 | 59 | 52 | 1.7 | 2.6 | 0.00 | 0.00 | 0.00 | 52 | 1019.4 |
| 20260503044546 | 58 | 58 | 1.7 | 2.6 | 0.00 | 0.00 | 0.00 | 52 | 1019.0 |
| 20260503044447 | 59 | 51 | 1.7 | 2.6 | 0.00 | 0.00 | 0.00 | 52 | 1019.3 |
| 20260503043928 | 59 | 58 | 1.7 | 2.6 | 0.00 | 0.00 | 0.00 | 51 | 1019.3 |
| 20260503043440 | 59 | 51 | 1.7 | 1.7 | 0.00 | 0.00 | 0.00 | 51 | 1019.3 |
| 20260503043034 | 59 | 51 | 0.9 | 1.7 | 0.00 | 0.00 | 0.00 | 50 | 1018.9 |
| 20260503042930 | 59 | 52 | 1.7 | 1.7 | 0.00 | 0.00 | 0.00 | 50 | 1019.2 |
| 20260503042433 | 60 | 57 | 0.9 | 1.7 | 0.00 | 0.00 | 0.00 | 49 | 1019.2 |
| 20260503041925 | 60 | 55 | 1.7 | 2.6 | 0.00 | 0.00 | 0.00 | 49 | 1019.2 |
| 20260503041543 | 59 | 60 | 0.9 | 2.6 | 0.00 | 0.00 | 0.00 | 49 | 1018.8 |
| 20260503041426 | 59 | 56 | 1.7 | 2.6 | 0.00 | 0.00 | 0.00 | 49 | 1019.2 |
| 20260503040938 | 59 | 50 | 1.7 | 1.7 | 0.00 | 0.00 | 0.00 | 51 | 1019.1 |
| 20260503040429 | 59 | 50 | 1.7 | 1.7 | 0.00 | 0.00 | 0.00 | 52 | 1019.1 |
| 20260503040052 | 59 | 50 | 0.9 | 1.7 | 0.00 | 0.00 | 0.00 | 52 | 1018.7 |
| 20260503035931 | 59 | 50 | 0.0 | 2.6 | 0.00 | 0.00 | 0.00 | 52 | 1019.1 |
| 20260503035422 | 59 | 59 | 0.9 | 2.6 | 0.00 | 0.00 | 0.00 | 52 | 1019.1 |
| 20260503034934 | 59 | 59 | 2.6 | 2.6 | 0.00 | 0.00 | 0.00 | 54 | 1019.1 |